Regional Weather Roundup
Issued by NWS

Home | Current Version | Previous Version | Graphics & Text | Print | Product List | Glossary On
Versions: 1 2 3 4 5 6 7 8 9 10 11 12 13 14 15 16 17 18 19 20 21 22 23 24 25 26 27 28 29 30 31 32 33 34 35 36 37 38 39 40 41 42 43 44 45 46 47 48 49 50
000
ASUS43 KOAX 222210
RWRNE

WEATHER ROUNDUP FOR NEBRASKA
NATIONAL WEATHER SERVICE OMAHA NE
500 PM CDT MON SEP 22 2014

NOTES: SATELLITE DATA IS BEING USED TO AUGMENT CLOUD COVER ABOVE
       12000 FEET.
       "FAIR" INDICATES FEW OR NO CLOUDS BELOW 12,000 FEET WITH NO
       SIGNIFICANT WEATHER AND/OR OBSTRUCTIONS TO VISIBILITY.

  * THESE STATIONS DO NOT REPORT WEATHER SUCH AS RAIN...SNOW OR FOG.

NEZ001>004-019>022-054>056-222300-
NEBRASKA PANHANDLE

CITY           SKY/WX    TMP DP  RH WIND       PRES   REMARKS
SCOTTSBLUFF    LGT RAIN  67  64  90 N13       30.05F
ALLIANCE       LGT RAIN  68  56  65 S21       30.07S
CHADRON        CLOUDY    75  55  49 S17       29.99S
KIMBALL        PTSUNNY   76  51  41 S8        30.08F
SIDNEY         MOSUNNY   76  54  46 S17       30.09F
$$

NEZ057>060-069>072-079>082-222300-
SOUTHWEST NEBRASKA

CITY           SKY/WX    TMP DP  RH WIND       PRES   REMARKS
NORTH PLATTE   RAIN      58  54  86 E7        30.14F
IMPERIAL       CLOUDY    72  51  47 S21       30.09F
LEXINGTON      CLOUDY    72  48  43 SE13      30.14F
MCCOOK         CLOUDY    77  46  33 S16G28    30.11F
OGALLALA       CLOUDY    64  57  78 SE10      30.10F
$$

NEZ005>010-023>029-035>040-094-222300-
NORTH CENTRAL NEBRASKA

CITY           SKY/WX    TMP DP  RH WIND       PRES   REMARKS
VALENTINE      CLOUDY    66  50  56 S21G29    30.09S
AINSWORTH      CLOUDY    69  47  44 S20G29    30.11F
BROKEN BOW     CLOUDY    71  47  42 S12       30.15F
O`NEILL        PTSUNNY   73  50  45 S14       30.14F
ORD            PTSUNNY   72  48  42 S13       30.14F
THEDFORD       RAIN      59  54  85 S7        30.16R
$$

NEZ041-046>049-061>064-073>077-083>087-222300-
SOUTH CENTRAL NEBRASKA

CITY           SKY/WX    TMP DP  RH WIND       PRES   REMARKS
GRAND ISLAND   MOSUNNY   74  49  41 SE10      30.17F
AURORA         MOSUNNY   73  44  35 S7        30.18F
HASTINGS       MOSUNNY   72  44  36 S10       30.17F
HEBRON         SUNNY     73  42  32 S8        30.20F
HOLDREGE       CLOUDY    72  46  39 S13       30.16F
KEARNEY *      CLOUDY    72  46  40 SE15      30.18S
YORK           MOSUNNY   72  48  43 S8        30.19F
$$

NEZ011>018-030>034-042>045-222300-
NORTHEAST NEBRASKA

CITY           SKY/WX    TMP DP  RH WIND       PRES   REMARKS
NORFOLK        MOSUNNY   73  49  42 S14       30.17F
ALBION         PTSUNNY   72  48  43 S9        30.18F
BLAIR          MOSUNNY   74  48  39 S9        30.21S
COLUMBUS *     MOSUNNY   72  48  43 S8        30.20F
FREMONT        PTSUNNY   74  45  36 S9        30.20F
TEKAMAH        MOSUNNY   74  47  38 S12       30.19F
WAYNE          MOSUNNY   73  50  43 S10       30.19F
$$

NEZ050>053-065>068-078-088>093-222300-
SOUTHEAST NEBRASKA

CITY           SKY/WX    TMP DP  RH WIND       PRES   REMARKS
LINCOLN        PTSUNNY   75  46  35 S9        30.20F
OMAHA EPPLEY   PTSUNNY   73  48  41 S10       30.21F
BEATRICE       PTSUNNY   73  45  36 S8        30.20F
FALLS CITY     SUNNY     73  47  39 S5        30.21F
NEBRASKA CITY    N/A     72  39  30 S5        30.22F
PLATTSMOUTH    MOSUNNY   73  49  42 SE5       30.21F
$$

NEZ044-045-051>053-067-222300-
OMAHA AREA

CITY           SKY/WX    TMP DP  RH WIND       PRES   REMARKS
OMAHA EPPLEY   PTSUNNY   73  48  41 S10       30.21F
BLAIR          MOSUNNY   74  48  39 S9        30.21S
FREMONT        PTSUNNY   74  45  36 S9        30.20F
MILLARD        MOSUNNY   74  49  41 S7        30.20F
OFFUTT AFB     MOSUNNY   72  53  51 SE7       30.21F
PLATTSMOUTH    MOSUNNY   73  49  42 SE5       30.21F
WAHOO          FAIR      74  42  31 S7        30.20F
$$


USA.gov is the U.S. government's official web portal to all federal, state and local government web resources and services.